QPF
0.12 0.12 0.08 0.00 0.00 0.00 0.00 0.00 0.00 0.00 0.00 0.01 0.00 0.00 0.00 0.00 0.00 0.00 0.00 0.00 0.00 0.00 0.00 0.00 0.00 0.00 0.00 0.00 0.00 0.00 0.00 0.00 0.00 0.00 0.00 0.00 0.00 0.00 0.00 0.00 0.00 0.00 0.00 0.00 0.00 0.00 0.00 0.00 0.00 0.00 0.00 0.00 0.00 0.00
0.12 0.12 0.07 0.00 0.00 0.00 0.00 0.00 0.00 0.00 0.00 0.01 0.00 0.00 0.00 0.00 0.00 0.00 0.00 0.00 0.00 0.00 0.00 0.00 0.00 0.00 0.00 0.00 0.00 0.00 0.00 0.00 0.00 0.00 0.00 0.00 0.00 0.00 0.00 0.00 0.00 0.00 0.00 0.00 0.00 0.00 0.00 0.00 0.00 0.00 0.00 0.00 0.00 0.00
0.09 0.18 0.09 0.00 0.00 0.00 0.00 0.00 0.00 0.00 0.01 0.01 0.00 0.00 0.00 0.00 0.00 0.00 0.00 0.00 0.00 0.00 0.00 0.00 0.00 0.00 0.00 0.00 0.00 0.00 0.00 0.00 0.00 0.00 0.00 0.00 0.00 0.00 0.00 0.00 0.00 0.00 0.00 0.00 0.00 0.00 0.00 0.00 0.00 0.00 0.00 0.00 0.00 0.00
0.07 0.21 0.08 0.00 0.00 0.00 0.00 0.00 0.00 0.00 0.00 0.01 0.00 0.00 0.00 0.00 0.00 0.00 0.00 0.00 0.00 0.00 0.00 0.00 0.00 0.00 0.00 0.00 0.00 0.00 0.00 0.00 0.00 0.00 0.00 0.00 0.00 0.00 0.00 0.00 0.00 0.00 0.00 0.00 0.00 0.00 0.00 0.00 0.00 0.00 0.00 0.00 0.00 0.00
0.14 0.20 0.06 0.00 0.00 0.00 0.00 0.00 0.00 0.00 0.00 0.00 0.00 0.00 0.00 0.00 0.00 0.00 0.00 0.01 0.00 0.00 0.00 0.00 0.00 0.00 0.00 0.00 0.00 0.00 0.00 0.00 0.00 0.00 0.00 0.00 0.00 0.00 0.00 0.00 0.00 0.00 0.00 0.00 0.00 0.00 0.00 0.00 0.00 0.00 0.00 0.00 0.00 0.00
0.14 0.30 0.04 0.00 0.00 0.00 0.01 0.00 0.00 0.00 0.00 0.00 0.00 0.00 0.00 0.00 0.00 0.00 0.00 0.00 0.00 0.00 0.00 0.00 0.00 0.00 0.00 0.00 0.00 0.00 0.00 0.00 0.00 0.00 0.00 0.00 0.00 0.00 0.00 0.00 0.00 0.00 0.00 0.00 0.00 0.00 0.00 0.00 0.00 0.00 0.00 0.00 0.00 0.00
0.10 0.31 0.02 0.00 0.00 0.00 0.03 0.01 0.01 0.00 0.00 0.00 0.01 0.00 0.00 0.00 0.01 0.00 0.00 0.00 0.00 0.00 0.00 0.00 0.00 0.00 0.00 0.00 0.00 0.00 0.00 0.00 0.00 0.00 0.00 0.00 0.00 0.00 0.00 0.00 0.00 0.00 0.00 0.00 0.00 0.00 0.00 0.00 0.00 0.00 0.00 0.00 0.00 0.00
0.10 0.24 0.02 0.00 0.00 0.01 0.04 0.02 0.01 0.00 0.01 0.01 0.03 0.02 0.00 0.00 0.00 0.00 0.00 0.00 0.00 0.00 0.00 0.00 0.00 0.00 0.00 0.00 0.00 0.00 0.00 0.00 0.00 0.00 0.00 0.00 0.00 0.00 0.00 0.00 0.00 0.00 0.00 0.00 0.00 0.00 0.00 0.00 0.00 0.00 0.00 0.00 0.00 0.00
0.16 0.14 0.01 0.00 0.00 0.03 0.03 0.03 0.02 0.02 0.02 0.03 0.05 0.04 0.00 0.01 0.02 0.00 0.00 0.00 0.00 0.00 0.00 0.00 0.00 0.00 0.00 0.00 0.01 0.00 0.00 0.00 0.00 0.00 0.00 0.00 0.00 0.00 0.00 0.00 0.00 0.00 0.00 0.00 0.00 0.00 0.00 0.00 0.00 0.00 0.00 0.00 0.00 0.00
0.23 0.07 0.00 0.00 0.00 0.04 0.02 0.02 0.02 0.03 0.02 0.06 0.08 0.03 0.00 0.00 0.00 0.00 0.01 0.01 0.00 0.00 0.00 0.00 0.00 0.00 0.00 0.00 0.00 0.00 0.00 0.00 0.00 0.00 0.00 0.00 0.00 0.00 0.00 0.00 0.00 0.00 0.00 0.00 0.00 0.00 0.00 0.00 0.00 0.00 0.00 0.00 0.00 0.00
0.18 0.03 0.00 0.00 0.00 0.01 0.01 0.02 0.02 0.02 0.03 0.05 0.04 0.01 0.00 0.00 0.01 0.01 0.00 0.00 0.00 0.00 0.00 0.00 0.00 0.00 0.00 0.01 0.01 0.01 0.00 0.00 0.00 0.00 0.01 0.00 0.00 0.00 0.00 0.00 0.00 0.00 0.00 0.00 0.00 0.00 0.00 0.00 0.00 0.00 0.00 0.00 0.00 0.00
0.08 0.01 0.00 0.00 0.00 0.00 0.01 0.02 0.02 0.01 0.04 0.01 0.00 0.01 0.01 0.02 0.00 0.00 0.00 0.00 0.00 0.00 0.00 0.00 0.00 0.00 0.00 0.01 0.00 0.00 0.00 0.00 0.00 0.00 0.00 0.00 0.00 0.00 0.00 0.00 0.00 0.00 0.00 0.00 0.00 0.00 0.00 0.00 0.00 0.00 0.00 0.00 0.00 0.00
0.07 0.00 0.00 0.00 0.00 0.00 0.01 0.08 0.03 0.01 0.02 0.01 0.00 0.01 0.02 0.01 0.00 0.00 0.00 0.00 0.00 0.00 0.00 0.00 0.00 0.00 0.00 0.00 0.00 0.00 0.00 0.00 0.00 0.00 0.00 0.00 0.00 0.00 0.00 0.00 0.00 0.00 0.00 0.00 0.00 0.00 0.00 0.00 0.00 0.00 0.00 0.00 0.00 0.00
0.04 0.00 0.00 0.00 0.00 0.00 0.05 0.16 0.03 0.05 0.03 0.00 0.00 0.00 0.00 0.00 0.00 0.00 0.00 0.00 0.00 0.00 0.00 0.00 0.00 0.00 0.00 0.00 0.00 0.00 0.00 0.00 0.00 0.00 0.00 0.00 0.00 0.00 0.00 0.00 0.00 0.00 0.00 0.00 0.00 0.00 0.00 0.00 0.00 0.00 0.00 0.00 0.00 0.00
0.00 0.00 0.00 0.00 0.00 0.00 0.13 0.10 0.03 0.04 0.04 0.01 0.00 0.00 0.00 0.00 0.00 0.00 0.00 0.00 0.00 0.00 0.00 0.00 0.00 0.00 0.00 0.00 0.00 0.00 0.00 0.00 0.00 0.00 0.00 0.00 0.00 0.00 0.00 0.00 0.00 0.00 0.00 0.00 0.00 0.00 0.00 0.00 0.00 0.00 0.00 0.00 0.00 0.00
0.00 0.00 0.00 0.00 0.00 0.03 0.17 0.14 0.10 0.04 0.05 0.03 0.01 0.00 0.00 0.00 0.00 0.00 0.00 0.00 0.00 0.00 0.00 0.00 0.00 0.00 0.00 0.00 0.00 0.00 0.00 0.00 0.00 0.00 0.00 0.00 0.00 0.00 0.00 0.00 0.00 0.00 0.00 0.00 0.00 0.00 0.00 0.00 0.00 0.00 0.00 0.00 0.00 0.00
0.00 0.00 0.00 0.00 0.00 0.05 0.22 0.33 0.18 0.07 0.01 0.00 0.00 0.01 0.02 0.01 0.01 0.01 0.01 0.02 0.00 0.00 0.00 0.00 0.00 0.00 0.00 0.00 0.00 0.00 0.00 0.00 0.00 0.00 0.00 0.00 0.00 0.00 0.00 0.00 0.00 0.00 0.00 0.00 0.00 0.00 0.00 0.00 0.00 0.00 0.00 0.00 0.00 0.00
0.00 0.00 0.00 0.00 0.00 0.09 0.30 0.32 0.12 0.02 0.00 0.00 0.01 0.03 0.03 0.02 0.01 0.01 0.01 0.02 0.01 0.00 0.00 0.00 0.00 0.00 0.00 0.00 0.00 0.00 0.00 0.00 0.00 0.00 0.00 0.00 0.00 0.00 0.00 0.00 0.00 0.00 0.00 0.00 0.00 0.00 0.00 0.00 0.00 0.00 0.00 0.00 0.00 0.00
0.01 0.00 0.00 0.00 0.00 0.06 0.19 0.18 0.05 0.00 0.00 0.00 0.01 0.00 0.00 0.00 0.00 0.00 0.00 0.00 0.00 0.01 0.01 0.00 0.00 0.00 0.00 0.01 0.01 0.00 0.00 0.00 0.00 0.00 0.00 0.00 0.00 0.00 0.00 0.00 0.00 0.00 0.00 0.00 0.00 0.00 0.00 0.00 0.00 0.00 0.00 0.00 0.00 0.00
0.00 0.00 0.00 0.00 0.02 0.04 0.05 0.11 0.03 0.00 0.00 0.00 0.00 0.00 0.00 0.00 0.00 0.00 0.00 0.00 0.00 0.00 0.00 0.00 0.00 0.00 0.01 0.00 0.00 0.00 0.00 0.00 0.00 0.00 0.00 0.00 0.00 0.00 0.00 0.00 0.00 0.00 0.00 0.00 0.00 0.00 0.00 0.00 0.00 0.00 0.00 0.00 0.00 0.00
0.01 0.01 0.01 0.02 0.10 0.05 0.02 0.07 0.01 0.00 0.00 0.00 0.00 0.00 0.00 0.00 0.00 0.00 0.00 0.00 0.00 0.00 0.00 0.00 0.00 0.00 0.00 0.00 0.00 0.00 0.00 0.00 0.00 0.00 0.00 0.00 0.00 0.00 0.00 0.00 0.00 0.00 0.00 0.00 0.00 0.00 0.00 0.00 0.00 0.00 0.00 0.00 0.00 0.00
0.02 0.02 0.01 0.08 0.16 0.06 0.01 0.00 0.00 0.00 0.00 0.00 0.00 0.00 0.00 0.00 0.00 0.00 0.00 0.00 0.00 0.00 0.00 0.00 0.00 0.00 0.00 0.00 0.00 0.00 0.00 0.00 0.00 0.00 0.00 0.00 0.00 0.00 0.00 0.00 0.00 0.00 0.00 0.00 0.00 0.00 0.00 0.00 0.00 0.00 0.00 0.00 0.00 0.00
0.02 0.00 0.01 0.11 0.16 0.10 0.05 0.00 0.00 0.00 0.00 0.00 0.00 0.00 0.00 0.00 0.00 0.00 0.00 0.00 0.00 0.00 0.00 0.00 0.00 0.00 0.00 0.00 0.00 0.00 0.00 0.00 0.00 0.00 0.00 0.00 0.00 0.00 0.00 0.00 0.00 0.00 0.00 0.00 0.00 0.00 0.00 0.00 0.00 0.00 0.00 0.00 0.00 0.00
0.01 0.00 0.02 0.08 0.12 0.08 0.02 0.00 0.00 0.00 0.00 0.00 0.00 0.00 0.00 0.00 0.00 0.00 0.00 0.00 0.00 0.00 0.00 0.00 0.00 0.00 0.00 0.00 0.00 0.00 0.00 0.01 0.01 0.01 0.00 0.00 0.00 0.00 0.00 0.00 0.00 0.00 0.00 0.00 0.00 0.00 0.00 0.00 0.00 0.00 0.00 0.00 0.00 0.00
0.07 0.03 0.03 0.05 0.04 0.01 0.00 0.00 0.00 0.00 0.00 0.00 0.00 0.00 0.00 0.00 0.00 0.00 0.00 0.00 0.00 0.00 0.00 0.00 0.01 0.00 0.00 0.00 0.01 0.01 0.02 0.01 0.01 0.01 0.00 0.00 0.00 0.00 0.00 0.00 0.00 0.00 0.00 0.00 0.00 0.00 0.00 0.00 0.00 0.00 0.00 0.00 0.00 0.00
0.10 0.04 0.03 0.01 0.00 0.00 0.00 0.00 0.00 0.00 0.00 0.00 0.00 0.00 0.00 0.00 0.00 0.00 0.00 0.00 0.00 0.00 0.00 0.00 0.01 0.01 0.01 0.01 0.01 0.01 0.01 0.01 0.00 0.00 0.00 0.00 0.00 0.00 0.00 0.00 0.00 0.00 0.00 0.00 0.00 0.00 0.00 0.00 0.00 0.00 0.00 0.00 0.00 0.00
0.06 0.01 0.00 0.00 0.00 0.00 0.00 0.00 0.00 0.00 0.00 0.00 0.00 0.00 0.00 0.00 0.00 0.00 0.00 0.00 0.00 0.00 0.00 0.00 0.01 0.01 0.00 0.00 0.00 0.00 0.00 0.00 0.00 0.00 0.00 0.00 0.00 0.00 0.00 0.00 0.00 0.00 0.00 0.00 0.00 0.00 0.00 0.00 0.00 0.00 0.00 0.00 0.00 0.00
0.00 0.00 0.00 0.00 0.00 0.00 0.00 0.00 0.00 0.00 0.00 0.00 0.00 0.00 0.00 0.00 0.00 0.00 0.00 0.00 0.00 0.00 0.00 0.00 0.00 0.00 0.00 0.00 0.00 0.00 0.00 0.00 0.00 0.00 0.00 0.00 0.00 0.00 0.00 0.00 0.00 0.00 0.00 0.00 0.00 0.00 0.00 0.00 0.00 0.00 0.00 0.00 0.00 0.00
0.00 0.00 0.00 0.00 0.00 0.00 0.00 0.00 0.00 0.00 0.00 0.00 0.00 0.00 0.00 0.00 0.00 0.00 0.00 0.00 0.00 0.00 0.00 0.00 0.00 0.00 0.00 0.00 0.00 0.00 0.00 0.00 0.00 0.00 0.00 0.00 0.00 0.00 0.00 0.00 0.00 0.00 0.00 0.00 0.00 0.00 0.00 0.00 0.00 0.00 0.00 0.00 0.00 0.00
0.00 0.00 0.00 0.00 0.00 0.00 0.00 0.00 0.00 0.00 0.00 0.00 0.00 0.00 0.00 0.00 0.00 0.00 0.00 0.00 0.00 0.00 0.00 0.00 0.00 0.00 0.00 0.00 0.00 0.00 0.00 0.00 0.00 0.00 0.00 0.00 0.00 0.00 0.00 0.00 0.00 0.00 0.00 0.00 0.00 0.00 0.00 0.00 0.00 0.00 0.00 0.00 0.00 0.00
0.00 0.00 0.00 0.00 0.00 0.00 0.00 0.00 0.00 0.00 0.00 0.00 0.00 0.00 0.00 0.00 0.00 0.02 0.02 0.00 0.00 0.00 0.00 0.00 0.00 0.00 0.00 0.00 0.00 0.00 0.00 0.00 0.00 0.00 0.00 0.00 0.00 0.00 0.00 0.00 0.00 0.00 0.00 0.00 0.00 0.00 0.00 0.00 0.00 0.00 0.00 0.00 0.00 0.00
0.00 0.00 0.00 0.00 0.00 0.00 0.00 0.01 0.00 0.00 0.00 0.00 0.00 0.00 0.00 0.00 0.00 0.02 0.04 0.02 0.02 0.02 0.00 0.00 0.00 0.00 0.00 0.00 0.00 0.00 0.00 0.00 0.00 0.00 0.00 0.00 0.00 0.00 0.00 0.00 0.00 0.00 0.00 0.00 0.00 0.00 0.00 0.00 0.00 0.00 0.00 0.00 0.00 0.00
0.00 0.00 0.00 0.00 0.00 0.00 0.00 0.00 0.00 0.00 0.00 0.00 0.00 0.01 0.01 0.00 0.00 0.00 0.01 0.02 0.01 0.00 0.00 0.00 0.00 0.00 0.00 0.00 0.00 0.00 0.00 0.00 0.00 0.00 0.00 0.00 0.00 0.00 0.00 0.00 0.00 0.00 0.00 0.00 0.00 0.00 0.00 0.00 0.00 0.00 0.00 0.00 0.00 0.00
MSLP
1004.46 1005.27 1005.54 1006.69 1007.72 1008.72 1009.49 1010.30 1010.89 1011.46 1011.92 1012.46 1012.98 1013.59 1014.09 1014.56 1014.99 1015.30 1014.82 1014.06 1014.47 1014.38 1014.58 1014.18 1014.00 1013.94 1013.95 1014.25 1014.41 1014.27 1014.90 1015.03 1015.48 1016.20 1016.29 1016.24 1015.84 1014.82 1014.14 1013.43 1013.20 1013.85 1014.79 1015.71 1016.31 1016.99 1016.98 1016.12 1015.97 1016.64 1017.82 1018.11 1018.46 1019.11
1004.25 1004.93 1005.65 1006.55 1007.49 1008.35 1009.19 1010.01 1010.51 1011.07 1011.63 1012.33 1012.89 1013.47 1013.96 1014.55 1014.81 1015.12 1014.91 1014.01 1013.97 1014.66 1015.15 1014.74 1014.69 1014.71 1014.83 1015.10 1014.96 1014.78 1015.74 1015.61 1016.36 1016.72 1016.87 1016.59 1016.49 1015.73 1015.17 1014.70 1013.61 1014.58 1014.85 1015.55 1016.33 1016.89 1016.59 1016.61 1016.80 1016.98 1017.29 1017.96 1018.59 1019.40
1003.92 1004.74 1005.47 1006.41 1007.24 1008.15 1009.09 1009.75 1010.30 1010.83 1011.47 1012.28 1012.83 1013.43 1013.98 1014.53 1014.74 1014.89 1014.98 1014.54 1014.58 1015.20 1015.53 1015.31 1015.33 1015.20 1015.10 1015.08 1014.96 1015.57 1016.23 1016.36 1016.83 1016.91 1017.49 1018.02 1017.70 1016.97 1016.62 1015.89 1014.96 1014.90 1014.85 1015.56 1016.21 1016.51 1016.97 1017.24 1017.46 1017.66 1017.94 1018.35 1018.84 1019.49
1003.75 1004.49 1005.43 1006.29 1007.15 1008.13 1008.91 1009.53 1010.16 1010.75 1011.52 1012.27 1012.92 1013.51 1014.05 1014.54 1014.74 1014.91 1015.12 1014.76 1014.79 1015.60 1016.51 1016.23 1015.41 1015.52 1015.52 1015.44 1015.56 1015.84 1016.46 1016.66 1016.97 1017.63 1018.94 1019.16 1018.84 1017.66 1017.37 1016.62 1016.24 1015.77 1015.41 1015.81 1016.47 1016.93 1017.54 1018.00 1018.10 1018.22 1018.46 1018.75 1019.38 1020.00
1004.14 1004.64 1005.42 1006.41 1007.37 1008.07 1008.79 1009.42 1010.06 1010.80 1011.64 1012.34 1013.08 1013.61 1014.23 1014.57 1014.76 1014.84 1014.96 1015.01 1014.79 1015.60 1016.55 1016.39 1015.96 1015.99 1015.85 1016.07 1016.27 1016.49 1016.96 1017.49 1018.11 1019.12 1020.05 1019.70 1018.72 1018.28 1017.54 1017.08 1016.76 1015.74 1015.68 1016.18 1016.79 1017.09 1017.82 1018.91 1018.55 1018.39 1019.03 1019.56 1019.97 1020.43
1004.30 1004.63 1005.51 1006.45 1007.26 1008.08 1008.83 1009.38 1010.16 1010.99 1011.82 1012.60 1013.30 1013.78 1014.24 1014.61 1014.86 1015.01 1015.77 1015.47 1015.06 1015.26 1016.34 1016.92 1016.78 1016.53 1016.42 1016.44 1016.84 1017.22 1017.63 1018.12 1018.59 1019.44 1019.78 1019.26 1018.27 1018.36 1018.32 1017.88 1016.27 1015.55 1015.63 1015.53 1016.72 1017.49 1018.10 1018.89 1019.22 1019.40 1019.78 1020.28 1020.79 1021.43
1004.54 1004.86 1005.60 1006.41 1007.31 1008.11 1008.75 1009.54 1010.42 1011.27 1012.12 1012.84 1013.42 1013.98 1014.51 1014.89 1014.98 1015.76 1016.39 1016.34 1015.84 1015.57 1016.91 1017.68 1017.36 1016.95 1016.84 1017.09 1017.77 1018.35 1018.56 1019.23 1019.53 1019.93 1019.97 1019.72 1018.99 1018.54 1018.33 1017.89 1016.37 1015.85 1015.82 1016.25 1016.82 1017.60 1018.85 1019.30 1020.25 1020.50 1020.77 1021.21 1021.64 1022.29
1004.66 1004.85 1005.67 1006.60 1007.47 1008.19 1008.95 1009.76 1010.59 1011.50 1012.21 1013.03 1013.71 1014.36 1014.83 1015.11 1015.70 1016.22 1016.30 1016.03 1015.81 1016.28 1017.01 1018.13 1018.24 1017.95 1017.46 1017.77 1018.66 1018.96 1019.90 1020.33 1020.35 1020.28 1020.09 1019.75 1019.03 1018.53 1018.28 1017.03 1016.24 1015.79 1016.08 1016.89 1017.48 1017.54 1018.62 1019.92 1020.74 1021.44 1021.80 1022.28 1023.05 1023.70
1004.91 1005.27 1006.09 1006.90 1007.66 1008.44 1009.09 1010.12 1010.83 1011.56 1012.47 1013.29 1014.07 1014.70 1015.12 1015.57 1016.16 1016.59 1016.46 1016.27 1016.39 1017.35 1017.99 1018.28 1018.33 1018.45 1017.94 1018.42 1018.86 1019.54 1019.86 1021.09 1020.70 1020.53 1020.07 1019.70 1019.13 1018.51 1017.35 1016.74 1016.31 1015.99 1016.39 1017.85 1018.61 1019.29 1020.02 1020.82 1021.72 1022.33 1022.74 1023.42 1024.13 1025.03
1005.17 1005.76 1006.59 1007.29 1007.99 1008.47 1009.53 1010.29 1010.95 1011.79 1012.73 1013.36 1014.50 1015.24 1016.52 1016.23 1016.11 1016.45 1016.95 1017.52 1017.85 1018.02 1018.01 1018.18 1017.60 1018.19 1018.32 1018.66 1019.47 1020.15 1020.14 1020.74 1021.02 1020.13 1019.46 1019.23 1018.86 1017.67 1017.02 1016.53 1016.72 1016.86 1017.17 1018.11 1019.45 1020.65 1021.22 1021.84 1022.44 1022.98 1023.46 1024.00 1024.98 1026.00
1005.59 1006.20 1006.94 1007.76 1008.53 1009.00 1009.94 1010.66 1011.41 1012.20 1012.68 1013.34 1014.41 1015.69 1016.39 1016.32 1016.70 1017.27 1018.31 1018.82 1019.06 1019.07 1018.40 1017.95 1017.58 1017.94 1018.00 1018.58 1019.55 1020.00 1020.46 1020.73 1020.71 1020.16 1019.67 1019.39 1019.09 1018.66 1017.67 1017.54 1017.89 1018.13 1018.57 1019.23 1019.76 1020.54 1021.17 1021.88 1022.79 1023.47 1024.28 1025.08 1025.94 1026.86
1006.07 1006.66 1007.46 1008.27 1008.97 1009.68 1010.42 1011.12 1011.62 1012.00 1012.89 1013.16 1013.71 1015.11 1016.28 1016.79 1017.42 1018.36 1018.57 1018.44 1018.58 1018.00 1017.76 1017.60 1017.37 1017.51 1018.04 1018.24 1019.68 1020.65 1020.94 1021.21 1020.90 1020.37 1020.20 1020.07 1019.53 1019.19 1019.11 1019.41 1019.90 1020.29 1020.65 1021.18 1021.47 1021.97 1022.36 1022.94 1023.59 1024.42 1025.36 1026.26 1027.06 1027.88
1006.29 1007.22 1007.96 1008.74 1009.55 1010.19 1010.87 1011.52 1011.97 1012.28 1012.45 1012.52 1013.93 1015.59 1016.17 1017.22 1017.79 1017.82 1017.73 1017.63 1017.55 1016.72 1016.98 1017.08 1017.41 1017.79 1018.16 1018.79 1020.09 1020.81 1021.34 1021.56 1020.97 1021.03 1020.65 1020.10 1019.83 1020.08 1020.40 1021.03 1021.74 1022.29 1022.65 1023.07 1023.60 1023.93 1024.29 1024.83 1025.33 1025.73 1026.52 1027.40 1028.07 1028.82
1006.97 1007.71 1008.43 1009.28 1010.08 1010.73 1011.33 1012.09 1012.44 1012.48 1012.60 1013.78 1014.77 1015.80 1016.23 1016.82 1016.53 1016.15 1015.96 1015.86 1015.78 1015.70 1016.34 1016.96 1017.57 1017.86 1018.27 1019.26 1020.27 1020.60 1020.78 1020.99 1021.29 1021.44 1020.95 1020.96 1020.96 1021.21 1021.58 1022.18 1022.72 1023.87 1024.34 1024.70 1025.13 1025.47 1025.84 1026.24 1026.78 1027.25 1027.59 1028.22 1028.75 1029.41
1007.52 1008.40 1009.27 1010.22 1010.80 1011.46 1012.10 1012.88 1013.07 1013.26 1013.16 1013.61 1014.45 1015.22 1015.42 1015.12 1014.96 1014.69 1014.62 1015.04 1014.98 1015.31 1016.12 1016.96 1017.55 1018.26 1018.89 1019.68 1020.07 1020.41 1020.84 1020.99 1021.02 1020.79 1021.01 1021.41 1021.60 1021.88 1022.48 1022.99 1023.73 1024.60 1025.11 1025.62 1026.08 1026.43 1026.78 1027.16 1027.46 1028.04 1028.54 1028.78 1029.30 1029.87
1008.25 1009.30 1010.17 1010.96 1011.52 1012.04 1012.65 1013.60 1013.96 1013.89 1013.59 1013.68 1013.73 1014.07 1014.22 1014.65 1014.68 1014.49 1014.41 1014.68 1014.83 1015.38 1016.10 1016.71 1017.71 1018.56 1018.85 1019.36 1019.83 1020.17 1020.58 1020.63 1020.63 1020.93 1021.28 1021.58 1022.05 1022.52 1023.00 1023.51 1024.27 1024.72 1025.22 1025.80 1026.37 1026.74 1027.19 1027.65 1027.92 1028.40 1029.00 1029.41 1029.75 1030.22
1008.48 1009.51 1010.63 1011.46 1012.19 1012.98 1014.13 1014.57 1015.03 1015.08 1014.80 1014.49 1014.15 1013.66 1013.94 1014.42 1014.56 1014.35 1014.10 1014.68 1014.72 1015.60 1016.23 1016.33 1017.16 1017.66 1017.91 1018.97 1019.71 1019.79 1020.01 1020.31 1020.75 1021.31 1021.63 1022.04 1022.47 1022.86 1023.22 1023.82 1024.36 1024.86 1025.24 1025.81 1026.37 1026.90 1027.46 1028.01 1028.34 1028.81 1029.32 1029.75 1030.06 1030.62
1009.67 1010.62 1011.24 1011.90 1012.62 1013.37 1014.76 1015.54 1015.68 1015.71 1015.55 1015.01 1014.74 1014.49 1014.39 1014.44 1014.80 1015.00 1014.87 1015.01 1015.35 1015.55 1015.76 1015.99 1016.29 1017.09 1017.98 1018.70 1019.23 1019.62 1020.41 1020.91 1021.37 1021.84 1022.19 1022.48 1022.99 1023.30 1023.65 1024.09 1024.51 1024.82 1025.40 1026.01 1026.46 1027.05 1027.62 1028.07 1028.52 1029.06 1029.33 1029.76 1030.26 1030.75
1010.18 1011.07 1011.76 1012.28 1012.87 1013.96 1015.31 1015.85 1015.68 1015.73 1015.73 1015.11 1015.06 1015.09 1015.25 1015.65 1016.03 1016.20 1016.04 1015.89 1015.56 1015.55 1016.19 1016.66 1017.34 1018.03 1018.21 1018.66 1019.21 1019.98 1020.70 1021.29 1021.94 1022.37 1022.68 1022.92 1023.15 1023.63 1024.05 1024.40 1024.85 1025.30 1025.92 1026.34 1026.67 1027.11 1027.68 1028.10 1028.56 1028.86 1029.21 1029.69 1030.20 1030.63
1010.97 1011.90 1012.44 1012.78 1013.11 1014.66 1015.43 1015.80 1015.59 1015.38 1015.61 1015.80 1015.67 1016.27 1016.69 1017.01 1017.01 1017.06 1016.92 1016.91 1016.82 1017.11 1017.76 1018.17 1018.54 1018.80 1019.02 1019.23 1019.19 1019.94 1020.67 1021.34 1021.97 1022.84 1023.46 1023.63 1023.71 1024.14 1024.50 1024.84 1025.42 1025.82 1026.21 1026.49 1026.88 1027.27 1027.93 1028.46 1028.66 1028.92 1029.26 1029.66 1030.22 1030.82
1012.23 1013.15 1013.31 1013.51 1014.83 1015.27 1015.65 1015.69 1015.54 1015.70 1015.98 1016.37 1016.75 1017.23 1017.79 1017.68 1017.93 1018.16 1018.31 1018.18 1018.16 1018.41 1018.77 1018.87 1019.40 1019.64 1019.69 1019.66 1019.77 1020.15 1020.77 1021.36 1021.97 1022.45 1023.11 1023.79 1024.22 1024.56 1024.91 1025.30 1025.56 1025.97 1026.50 1026.91 1027.27 1027.89 1028.36 1028.83 1028.95 1029.13 1029.47 1030.09 1030.58 1031.04
1012.89 1013.49 1014.58 1015.24 1015.99 1015.94 1016.02 1015.85 1015.64 1015.83 1016.33 1016.79 1017.17 1017.66 1018.32 1018.67 1018.78 1018.85 1018.99 1019.08 1019.27 1019.14 1019.29 1019.64 1020.15 1020.22 1020.20 1020.31 1020.41 1020.59 1020.87 1021.37 1021.98 1022.67 1023.04 1023.61 1024.34 1024.73 1025.12 1025.43 1025.85 1026.39 1026.78 1027.04 1027.44 1028.04 1028.67 1028.98 1029.22 1029.49 1030.05 1030.56 1030.84 1031.26
1013.11 1014.10 1015.57 1016.27 1016.58 1016.47 1016.41 1015.72 1015.79 1016.27 1016.81 1017.15 1017.30 1017.91 1018.38 1018.61 1018.87 1019.06 1019.45 1019.56 1019.46 1019.55 1019.71 1020.10 1020.33 1020.39 1020.45 1020.57 1020.61 1020.87 1021.14 1021.60 1022.31 1022.79 1023.20 1023.75 1024.29 1024.80 1025.23 1025.65 1026.04 1026.47 1026.90 1027.39 1027.65 1028.26 1028.86 1029.21 1029.72 1030.28 1030.55 1031.04 1031.43 1031.81
1013.79 1015.18 1015.92 1016.34 1016.44 1016.52 1016.47 1016.08 1015.59 1016.22 1016.64 1017.02 1017.41 1017.85 1018.25 1018.69 1019.04 1019.28 1019.34 1019.28 1019.15 1019.56 1020.00 1020.28 1020.42 1020.60 1020.74 1020.89 1021.14 1021.42 1021.72 1021.96 1022.60 1023.14 1023.58 1024.12 1024.75 1025.29 1025.62 1026.03 1026.34 1026.71 1027.02 1027.41 1028.04 1028.74 1029.26 1029.72 1030.09 1030.58 1031.04 1031.36 1031.62 1031.80
1014.58 1016.19 1016.28 1016.28 1016.23 1016.29 1016.14 1015.83 1015.88 1016.28 1016.62 1016.91 1017.36 1017.77 1018.25 1018.51 1018.82 1018.98 1018.82 1018.44 1018.90 1019.24 1019.66 1020.13 1020.27 1020.43 1020.62 1020.99 1021.35 1021.64 1021.91 1022.21 1022.77 1023.32 1023.98 1024.38 1025.03 1025.57 1026.14 1026.57 1026.90 1027.24 1027.47 1028.08 1028.77 1029.22 1029.75 1030.19 1030.54 1030.84 1031.07 1031.31 1031.56 1031.78
1015.03 1015.80 1015.84 1015.32 1015.50 1015.73 1015.80 1016.02 1015.84 1016.10 1016.41 1016.89 1017.25 1017.56 1017.97 1018.48 1018.74 1018.41 1017.91 1017.62 1018.20 1018.72 1019.27 1019.56 1019.83 1020.25 1020.68 1020.94 1021.35 1021.72 1022.10 1022.51 1022.95 1023.58 1024.26 1024.52 1024.91 1025.43 1026.10 1026.68 1027.33 1027.98 1027.94 1028.38 1028.94 1029.46 1029.92 1030.32 1030.69 1030.99 1031.24 1031.42 1031.58 1031.80
1014.96 1015.26 1014.94 1014.52 1014.47 1014.79 1015.32 1015.39 1015.56 1016.05 1016.48 1016.66 1016.94 1017.76 1018.24 1018.54 1018.24 1017.64 1017.44 1017.51 1018.02 1018.39 1018.98 1019.38 1019.67 1020.08 1020.46 1020.99 1021.54 1021.89 1022.15 1022.43 1023.02 1023.55 1024.05 1024.51 1025.10 1025.60 1026.12 1026.69 1027.23 1027.80 1028.05 1028.52 1029.05 1029.50 1029.97 1030.47 1030.85 1031.06 1031.38 1031.61 1031.76 1031.99
1014.95 1014.81 1014.98 1014.81 1014.98 1015.16 1015.42 1015.69 1016.01 1016.09 1016.14 1016.02 1016.89 1017.71 1017.86 1017.77 1017.71 1017.71 1017.70 1017.49 1017.77 1018.37 1018.82 1019.30 1019.67 1020.14 1020.63 1021.09 1021.55 1021.92 1022.42 1023.01 1023.58 1024.21 1024.82 1025.58 1025.96 1026.17 1026.49 1027.02 1027.52 1027.98 1028.33 1028.74 1029.22 1029.74 1030.08 1030.40 1030.84 1031.18 1031.53 1031.84 1032.14 1032.25
1015.26 1015.07 1015.24 1015.71 1015.80 1016.01 1016.19 1016.26 1016.06 1016.18 1016.20 1016.15 1016.89 1017.48 1017.90 1018.12 1018.43 1018.40 1018.24 1018.05 1018.20 1018.53 1018.91 1019.38 1020.00 1020.44 1021.10 1021.61 1021.96 1022.33 1022.77 1023.20 1023.80 1024.68 1025.59 1026.50 1026.93 1027.49 1027.31 1027.52 1027.99 1028.45 1029.13 1029.31 1029.61 1029.88 1030.20 1030.63 1031.12 1031.51 1031.87 1032.16 1032.45 1032.73
1015.49 1015.41 1015.89 1016.22 1016.60 1016.80 1017.08 1017.05 1017.01 1017.01 1016.76 1016.83 1017.25 1017.89 1018.41 1018.76 1018.99 1018.93 1018.56 1018.36 1018.53 1018.78 1019.34 1019.85 1020.34 1020.79 1021.46 1021.99 1022.75 1023.43 1023.70 1023.62 1024.02 1024.62 1025.50 1026.28 1026.72 1027.31 1027.55 1027.89 1028.49 1029.00 1029.33 1029.65 1030.08 1030.54 1030.91 1031.13 1031.54 1031.90 1032.23 1032.54 1032.92 1033.30
1015.39 1015.46 1015.84 1016.41 1017.02 1017.31 1017.39 1017.42 1017.45 1017.41 1017.51 1017.65 1017.72 1018.21 1018.84 1019.15 1019.23 1019.08 1018.82 1018.77 1018.98 1019.42 1019.93 1020.53 1021.06 1021.39 1021.74 1022.37 1022.81 1023.40 1024.20 1024.43 1024.39 1024.74 1025.22 1026.00 1026.70 1027.15 1027.62 1028.24 1028.89 1029.33 1029.64 1030.08 1030.52 1030.89 1031.19 1031.48 1031.81 1032.22 1032.61 1032.96 1033.35 1033.78
1015.93 1015.92 1016.34 1017.01 1017.43 1017.61 1017.57 1017.51 1017.62 1017.77 1017.92 1018.09 1018.45 1018.78 1019.19 1019.18 1019.46 1019.49 1019.42 1019.27 1019.36 1019.78 1020.19 1020.57 1021.07 1021.65 1022.09 1022.64 1023.05 1023.34 1023.77 1024.33 1024.63 1025.11 1025.64 1026.30 1026.84 1027.42 1027.84 1028.49 1029.02 1029.36 1029.77 1030.24 1030.62 1030.93 1031.20 1031.58 1032.12 1032.53 1033.01 1033.60 1034.02 1034.34
1016.05 1016.18 1016.33 1016.80 1017.28 1017.48 1017.58 1017.60 1017.63 1017.94 1017.99 1018.20 1018.38 1018.66 1018.71 1018.84 1019.35 1019.52 1019.51 1019.42 1019.36 1019.46 1020.04 1020.71 1021.25 1021.80 1022.36 1022.97 1023.46 1023.89 1024.19 1024.65 1025.14 1025.60 1026.12 1026.61 1027.12 1027.62 1028.26 1028.82 1029.22 1029.66 1030.09 1030.28 1030.53 1030.91 1031.32 1031.81 1032.31 1032.75 1033.31 1034.17 1034.67 1034.99
Thickness
5371 5382 5399 5412 5424 5436 5449 5460 5472 5482 5493 5502 5509 5513 5519 5524 5529 5534 5546 5559 5563 5570 5575 5588 5594 5594 5601 5605 5606 5616 5607 5609 5607 5606 5606 5606 5608 5619 5624 5634 5632 5620 5599 5596 5594 5579 5566 5609 5607 5587 5579 5578 5572 5565
5365 5376 5393 5408 5419 5431 5443 5454 5467 5478 5489 5496 5503 5508 5514 5518 5524 5529 5540 5554 5562 5563 5565 5577 5583 5587 5591 5592 5598 5606 5600 5607 5604 5601 5603 5611 5608 5609 5613 5600 5637 5602 5611 5598 5595 5586 5601 5604 5595 5594 5588 5578 5569 5555
5363 5374 5389 5402 5414 5425 5436 5449 5462 5473 5483 5489 5497 5502 5508 5513 5520 5526 5534 5545 5552 5550 5551 5563 5569 5580 5587 5592 5600 5592 5593 5599 5596 5602 5598 5592 5596 5599 5590 5601 5612 5616 5621 5603 5595 5600 5591 5587 5583 5579 5575 5569 5561 5553
5361 5373 5384 5397 5409 5419 5431 5444 5456 5467 5476 5482 5490 5496 5502 5507 5514 5520 5527 5538 5545 5543 5522 5544 5569 5571 5578 5583 5588 5591 5589 5592 5595 5590 5569 5561 5563 5596 5589 5599 5595 5600 5609 5601 5594 5594 5584 5578 5576 5574 5568 5563 5551 5542
5359 5371 5379 5391 5402 5415 5427 5439 5451 5461 5468 5476 5482 5490 5494 5500 5508 5515 5523 5532 5540 5535 5520 5542 5557 5563 5570 5574 5577 5580 5580 5579 5578 5568 5550 5547 5579 5584 5589 5590 5585 5599 5592 5583 5574 5587 5576 5566 5569 5570 5558 5549 5541 5532
5356 5368 5375 5387 5399 5410 5421 5434 5445 5453 5461 5467 5475 5483 5488 5494 5502 5510 5506 5522 5531 5537 5528 5519 5546 5553 5560 5566 5566 5568 5570 5571 5572 5567 5567 5572 5585 5580 5565 5573 5593 5601 5602 5602 5583 5577 5570 5561 5557 5553 5546 5539 5531 5520
5353 5363 5373 5384 5395 5406 5418 5429 5437 5446 5453 5461 5468 5475 5480 5487 5496 5497 5498 5512 5520 5528 5512 5512 5528 5545 5552 5555 5552 5551 5554 5554 5557 5554 5555 5562 5568 5574 5553 5548 5589 5592 5594 5589 5582 5573 5560 5557 5541 5538 5532 5525 5519 5512
5350 5364 5372 5381 5391 5402 5413 5423 5432 5439 5448 5453 5460 5467 5473 5481 5486 5491 5498 5506 5514 5517 5518 5499 5517 5526 5543 5542 5537 5544 5535 5535 5538 5545 5551 5555 5562 5566 5548 5577 5585 5590 5587 5577 5571 5570 5559 5544 5534 5526 5518 5510 5502 5494
5350 5362 5368 5377 5388 5397 5409 5416 5426 5435 5441 5447 5453 5458 5465 5471 5475 5482 5491 5500 5505 5503 5493 5505 5506 5503 5533 5531 5535 5531 5537 5516 5532 5525 5543 5548 5551 5536 5566 5576 5579 5587 5581 5563 5555 5548 5539 5529 5520 5515 5508 5500 5491 5478
5349 5359 5364 5374 5384 5395 5403 5412 5422 5429 5435 5442 5443 5446 5439 5459 5472 5478 5480 5474 5478 5490 5503 5499 5524 5515 5522 5523 5516 5517 5525 5515 5515 5527 5547 5531 5544 5565 5570 5574 5575 5572 5567 5558 5540 5530 5524 5517 5511 5507 5502 5493 5480 5466
5348 5356 5361 5369 5379 5390 5398 5407 5416 5423 5430 5437 5439 5438 5447 5457 5462 5466 5459 5459 5468 5472 5493 5502 5518 5511 5522 5514 5505 5519 5513 5511 5520 5535 5537 5538 5536 5550 5556 5559 5554 5553 5550 5544 5539 5531 5524 5516 5505 5497 5488 5477 5464 5452
5344 5352 5358 5366 5376 5385 5396 5403 5414 5425 5429 5438 5446 5444 5443 5448 5444 5448 5451 5467 5473 5489 5494 5497 5508 5515 5514 5519 5501 5498 5506 5502 5518 5524 5509 5510 5535 5540 5541 5538 5531 5526 5522 5516 5515 5510 5508 5503 5494 5482 5468 5458 5449 5441
5349 5352 5358 5365 5374 5383 5392 5401 5410 5419 5429 5438 5434 5433 5439 5437 5446 5458 5464 5474 5469 5497 5498 5501 5497 5503 5507 5507 5493 5490 5489 5489 5508 5499 5525 5520 5531 5525 5522 5516 5506 5502 5499 5495 5488 5482 5478 5471 5467 5462 5453 5444 5437 5429
5347 5354 5359 5364 5371 5380 5389 5395 5403 5414 5424 5415 5413 5429 5425 5438 5449 5463 5477 5479 5488 5500 5499 5495 5495 5493 5500 5493 5485 5495 5498 5496 5493 5494 5501 5508 5504 5502 5502 5496 5490 5482 5478 5474 5469 5465 5461 5457 5451 5445 5440 5433 5427 5420
5348 5351 5354 5359 5368 5376 5382 5387 5397 5406 5418 5420 5427 5419 5438 5457 5469 5479 5487 5488 5496 5499 5494 5486 5487 5491 5482 5484 5492 5496 5495 5496 5508 5501 5496 5489 5491 5493 5488 5486 5478 5471 5466 5462 5456 5452 5447 5444 5440 5434 5428 5424 5418 5411
5345 5345 5351 5358 5365 5373 5378 5382 5389 5399 5414 5426 5441 5442 5458 5457 5456 5469 5481 5484 5493 5491 5489 5493 5489 5482 5490 5482 5495 5497 5500 5499 5497 5487 5485 5485 5484 5480 5477 5474 5469 5468 5461 5456 5450 5445 5439 5433 5431 5425 5418 5413 5408 5404
5349 5352 5352 5357 5362 5368 5365 5375 5381 5389 5403 5419 5427 5453 5456 5456 5457 5474 5481 5479 5486 5485 5479 5493 5491 5487 5496 5479 5486 5493 5488 5481 5477 5476 5477 5478 5474 5473 5471 5467 5462 5459 5458 5452 5444 5438 5433 5426 5422 5416 5411 5405 5402 5396
5344 5346 5353 5357 5363 5367 5367 5368 5375 5385 5391 5410 5421 5432 5443 5451 5455 5459 5467 5472 5474 5475 5487 5488 5499 5495 5479 5494 5483 5474 5471 5470 5469 5469 5468 5467 5463 5463 5463 5460 5457 5455 5449 5442 5436 5429 5425 5420 5415 5409 5406 5403 5397 5392
5345 5347 5352 5360 5367 5366 5361 5366 5380 5388 5394 5413 5423 5428 5434 5438 5440 5444 5451 5459 5469 5475 5477 5475 5482 5468 5477 5475 5470 5461 5463 5462 5456 5455 5455 5457 5457 5454 5450 5447 5444 5440 5434 5431 5429 5424 5419 5413 5408 5406 5404 5400 5395 5390
5344 5347 5352 5360 5367 5363 5365 5368 5380 5396 5399 5405 5414 5411 5416 5417 5425 5430 5436 5442 5455 5454 5442 5453 5453 5454 5463 5463 5465 5459 5455 5453 5449 5442 5438 5440 5443 5441 5438 5435 5430 5428 5425 5423 5420 5415 5410 5405 5404 5404 5401 5397 5391 5384
5340 5341 5348 5356 5355 5362 5364 5369 5385 5392 5396 5397 5401 5399 5401 5410 5415 5418 5420 5426 5433 5436 5443 5439 5441 5445 5446 5451 5452 5451 5448 5447 5441 5441 5436 5432 5430 5430 5427 5424 5423 5419 5415 5413 5410 5405 5400 5399 5399 5399 5395 5389 5384 5377
5342 5345 5344 5346 5348 5361 5366 5375 5384 5388 5393 5389 5393 5398 5395 5397 5402 5408 5413 5418 5423 5431 5427 5427 5429 5430 5434 5438 5438 5439 5439 5437 5434 5429 5429 5426 5422 5419 5417 5416 5413 5409 5407 5407 5403 5399 5396 5395 5394 5391 5387 5381 5376 5371
5346 5344 5339 5340 5347 5354 5361 5375 5384 5385 5383 5386 5396 5393 5396 5398 5398 5404 5404 5408 5414 5413 5416 5416 5418 5422 5426 5426 5427 5427 5426 5426 5422 5420 5418 5415 5411 5409 5408 5406 5404 5402 5401 5397 5396 5393 5391 5389 5385 5381 5377 5372 5367 5363
5345 5339 5341 5346 5351 5359 5363 5368 5392 5389 5388 5390 5394 5395 5398 5392 5395 5398 5407 5405 5406 5408 5408 5409 5411 5413 5414 5414 5413 5412 5411 5411 5407 5404 5403 5401 5399 5398 5398 5396 5394 5394 5392 5391 5389 5386 5384 5380 5377 5374 5370 5365 5362 5358
5344 5333 5341 5346 5352 5358 5361 5379 5386 5387 5385 5392 5388 5385 5384 5387 5383 5391 5405 5405 5404 5402 5405 5403 5405 5406 5407 5404 5402 5401 5400 5399 5396 5394 5391 5391 5388 5387 5386 5385 5384 5384 5385 5384 5381 5379 5376 5372 5369 5366 5363 5360 5356 5353
5345 5339 5350 5356 5362 5363 5372 5362 5367 5375 5387 5385 5391 5390 5389 5388 5394 5404 5411 5407 5401 5401 5400 5400 5400 5400 5398 5399 5397 5395 5393 5391 5389 5386 5383 5385 5385 5384 5381 5379 5378 5377 5379 5378 5375 5373 5370 5366 5362 5359 5356 5354 5351 5347
5347 5345 5360 5372 5379 5383 5376 5382 5388 5384 5375 5378 5388 5378 5387 5390 5397 5404 5401 5401 5400 5399 5397 5396 5397 5395 5394 5392 5390 5390 5390 5389 5386 5385 5383 5382 5380 5380 5379 5379 5378 5375 5375 5373 5370 5367 5364 5359 5356 5353 5350 5347 5344 5340
5348 5358 5344 5364 5367 5377 5371 5378 5379 5379 5390 5395 5388 5375 5378 5389 5396 5394 5393 5397 5397 5396 5394 5392 5391 5388 5387 5387 5386 5386 5384 5382 5379 5376 5374 5372 5373 5375 5376 5374 5372 5370 5369 5367 5364 5360 5357 5354 5350 5347 5343 5339 5335 5331
5344 5357 5356 5342 5356 5365 5367 5371 5381 5381 5381 5390 5383 5382 5378 5377 5377 5381 5384 5389 5391 5391 5390 5388 5384 5383 5381 5380 5380 5380 5379 5379 5377 5370 5367 5365 5362 5362 5366 5367 5365 5363 5359 5357 5355 5353 5350 5346 5342 5338 5334 5330 5326 5321
5341 5353 5348 5344 5345 5355 5353 5359 5364 5364 5371 5371 5370 5369 5367 5369 5369 5372 5377 5383 5385 5384 5381 5380 5378 5378 5376 5374 5369 5365 5366 5370 5373 5372 5367 5364 5362 5361 5361 5360 5357 5354 5351 5349 5346 5342 5339 5337 5333 5329 5325 5321 5316 5311
5347 5350 5350 5350 5346 5348 5349 5352 5353 5356 5357 5359 5362 5360 5359 5361 5363 5366 5371 5375 5375 5374 5373 5371 5369 5370 5371 5368 5367 5365 5362 5364 5367 5368 5367 5364 5360 5358 5356 5353 5348 5345 5343 5340 5337 5334 5331 5328 5323 5321 5317 5312 5307 5301
5338 5344 5340 5337 5339 5340 5343 5350 5350 5348 5349 5351 5356 5350 5350 5359 5361 5360 5361 5366 5369 5369 5368 5367 5366 5364 5363 5362 5363 5364 5365 5364 5364 5363 5361 5358 5354 5351 5348 5344 5341 5339 5336 5333 5330 5327 5324 5320 5315 5311 5308 5302 5297 5291
5334 5337 5336 5335 5335 5338 5339 5342 5344 5342 5343 5347 5347 5347 5354 5356 5353 5354 5355 5359 5363 5366 5363 5361 5360 5358 5358 5359 5358 5359 5359 5359 5358 5356 5354 5351 5347 5344 5340 5336 5333 5330 5327 5325 5323 5320 5316 5312 5308 5303 5297 5288 5282 5277